EW2295 Weather Reports


time (UTC)temp
C
wind
direction
speed
KPH
gust
KPH
rain 1hr
cm
rain 24hr
cm
rain mn
cm
humidity
%
barometer
mb
20260510181046 16 0 1.6 17.7 0.00 0.00 0.00 71 1009.7
20260510180543 16 0 0.0 14.5 0.00 0.00 0.00 70 1009.7
20260510180100 16 0 1.6 14.5 0.00 0.00 0.00 69 1009.7
20260510175543 16 5 0.0 8.0 0.00 0.00 0.00 68 1009.6
20260510175046 16 0 0.0 4.8 0.00 0.00 0.00 67 1009.6
20260510174547 16 0 0.0 9.7 0.00 0.00 0.00 66 1009.6
20260510174047 17 0 0.0 9.7 0.00 0.00 0.00 64 1009.4
20260510173546 17 0 1.6 9.7 0.00 0.00 0.00 62 1009.6
20260510173054 17 0 0.0 6.4 0.00 0.00 0.00 60 1009.5
20260510172546 17 0 0.0 8.0 0.00 0.00 0.00 60 1009.5
20260510172049 17 0 0.0 8.0 0.00 0.00 0.00 60 1009.5
20260510171558 17 0 1.6 12.9 0.00 0.00 0.00 60 1009.4
20260510171049 17 0 1.6 12.9 0.00 0.00 0.00 58 1009.5
20260510170545 17 0 0.0 12.9 0.00 0.00 0.00 58 1009.6
20260510170050 17 0 0.0 12.9 0.00 0.00 0.00 59 1009.5
20260510165546 17 0 0.0 12.9 0.00 0.00 0.00 58 1009.5
20260510165048 17 0 0.0 9.7 0.00 0.00 0.00 59 1009.5
20260510164557 17 0 1.6 9.7 0.00 0.00 0.00 59 1009.6
20260510164048 17 322 0.0 14.5 0.00 0.00 0.00 60 1009.6
20260510163545 17 0 0.0 14.5 0.00 0.00 0.00 59 1009.6
20260510163108 17 0 0.0 9.7 0.00 0.00 0.00 60 1009.7
20260510162546 17 0 0.0 8.0 0.00 0.00 0.00 60 1009.8
20260510162048 17 0 0.0 8.0 0.00 0.00 0.00 59 1009.8
20260510161600 17 0 1.6 8.0 0.00 0.00 0.00 60 1009.9
20260510161042 17 0 0.0 8.0 0.00 0.00 0.00 59 1010.0
20260510160542 17 0 1.6 12.9 0.00 0.00 0.00 58 1010.1
20260510155545 18 0 0.0 8.0 0.00 0.00 0.00 58 1010.3
20260510155046 18 355 0.0 12.9 0.00 0.00 0.00 59 1010.2
20260510154553 18 5 1.6 12.9 0.00 0.00 0.00 58 1010.4
20260510154045 18 0 0.0 12.9 0.00 0.00 0.00 58 1010.4
20260510153546 18 0 0.0 12.9 0.00 0.00 0.00 57 1010.5
20260510153058 18 0 1.6 12.9 0.00 0.00 0.00 57 1010.5
20260510152545 18 0 1.6 14.5 0.00 0.00 0.00 57 1010.6
20260510152046 18 0 0.0 14.5 0.00 0.00 0.00 56 1010.7
20260510151551 18 352 1.6 14.5 0.00 0.00 0.00 58 1010.8
20260510151045 18 0 0.0 12.9 0.00 0.00 0.00 58 1010.8
20260510150546 18 0 0.0 12.9 0.00 0.00 0.00 57 1010.9
20260510150103 18 0 1.6 12.9 0.00 0.00 0.00 58 1010.9
20260510145542 18 0 0.0 17.7 0.00 0.00 0.00 58 1011.0
20260510145042 18 0 3.2 17.7 0.00 0.00 0.00 57 1011.0
20260510144556 18 355 3.2 14.5 0.00 0.00 0.00 58 1011.2
20260510144047 18 338 1.6 16.1 0.00 0.00 0.00 56 1011.1
20260510143542 18 0 1.6 16.1 0.00 0.00 0.00 57 1011.3
20260510143106 18 0 0.0 12.9 0.00 0.00 0.00 57 1011.3
20260510142542 18 0 0.0 12.9 0.00 0.00 0.00 57 1011.2
20260510142047 18 0 0.0 12.9 0.00 0.00 0.00 57 1011.4
20260510141554 18 0 3.2 14.5 0.00 0.00 0.00 60 1011.4
20260510141048 18 0 0.0 14.5 0.00 0.00 0.00 59 1011.6
20260510140546 18 0 1.6 16.1 0.00 0.00 0.00 57 1011.6
20260510140055 18 338 1.6 16.1 0.00 0.00 0.00 57 1011.6
20260510135548 18 306 0.0 17.7 0.00 0.00 0.00 56 1011.7
20260510135046 18 0 1.6 17.7 0.00 0.00 0.00 55 1011.8
20260510134559 18 5 3.2 17.7 0.00 0.00 0.00 58 1011.9
20260510134049 18 0 1.6 14.5 0.00 0.00 0.00 58 1011.9
20260510133547 18 342 0.0 12.9 0.00 0.00 0.00 57 1011.9
20260510133054 18 0 0.0 12.9 0.00 0.00 0.00 58 1012.1
20260510132545 18 0 3.2 9.7 0.00 0.00 0.00 58 1012.1
20260510132046 18 0 0.0 9.7 0.00 0.00 0.00 55 1012.1
20260510131553 18 0 0.0 8.0 0.00 0.00 0.00 56 1012.3
20260510131045 18 0 0.0 8.0 0.00 0.00 0.00 55 1012.3
20260510130542 18 0 0.0 4.8 0.00 0.00 0.00 55 1012.3
20260510130059 18 0 0.0 0.0 0.00 0.00 0.00 55 1012.5
20260510125548 18 0 0.0 0.0 0.00 0.00 0.00 55 1012.5
20260510125044 18 0 0.0 4.8 0.00 0.00 0.00 56 1012.7
20260510124556 18 0 0.0 4.8 0.00 0.00 0.00 55 1012.6
20260510124046 18 0 0.0 6.4 0.00 0.00 0.00 54 1012.7
20260510123546 18 0 0.0 6.4 0.00 0.00 0.00 54 1012.7
20260510123050 18 0 0.0 9.7 0.00 0.00 0.00 55 1012.7
20260510122544 18 0 0.0 12.9 0.00 0.00 0.00 54 1012.8
20260510122045 18 0 1.6 12.9 0.00 0.00 0.00 54 1012.8
20260510121551 18 0 0.0 9.7 0.00 0.00 0.00 54 1012.8
20260510121049 18 0 0.0 9.7 0.00 0.00 0.00 56 1012.8
20260510120545 18 0 1.6 9.7 0.00 0.00 0.00 56 1012.9
20260510120051 19 0 1.6 12.9 0.00 0.00 0.00 56 1013.0
20260510115542 19 350 3.2 12.9 0.00 0.00 0.00 58 1013.1
20260510115042 18 26 1.6 14.5 0.00 0.00 0.00 56 1013.1
20260510114548 18 0 0.0 14.5 0.00 0.00 0.00 56 1013.1
20260510114044 18 355 0.0 16.1 0.00 0.00 0.00 55 1013.2
20260510113545 18 0 1.6 16.1 0.00 0.00 0.00 57 1013.2
20260510113054 18 17 0.0 12.9 0.00 0.00 0.00 57 1013.2
20260510112542 18 311 0.0 12.9 0.00 0.00 0.00 58 1013.2
20260510112042 18 0 3.2 12.9 0.00 0.00 0.00 57 1013.3
20260510111555 17 0 1.6 9.7 0.00 0.00 0.00 60 1013.4
20260510111041 18 0 0.0 9.7 0.00 0.00 0.00 58 1013.5
20260510110541 18 0 0.0 9.7 0.00 0.00 0.00 58 1013.5
20260510110050 17 0 0.0 9.7 0.00 0.00 0.00 58 1013.6
20260510105546 17 0 0.0 9.7 0.00 0.00 0.00 58 1013.5
20260510105043 17 344 0.0 4.8 0.00 0.00 0.00 61 1013.7
20260510104557 17 0 0.0 14.5 0.00 0.00 0.00 57 1013.8
20260510104049 17 352 1.6 14.5 0.00 0.00 0.00 57 1013.8
20260510103545 17 0 0.0 6.4 0.00 0.00 0.00 58 1013.8
20260510103053 17 0 0.0 6.4 0.00 0.00 0.00 59 1013.9
20260510102545 17 0 0.0 16.1 0.00 0.00 0.00 58 1013.9
20260510102045 17 0 0.0 16.1 0.00 0.00 0.00 58 1014.0
20260510101550 17 0 3.2 16.1 0.00 0.00 0.00 58 1013.9
20260510101047 17 0 0.0 6.4 0.00 0.00 0.00 62 1013.9
20260510100545 17 0 0.0 8.0 0.00 0.00 0.00 60 1013.9
20260510100050 17 0 0.0 8.0 0.00 0.00 0.00 60 1013.9
20260510095545 17 0 0.0 9.7 0.00 0.00 0.00 61 1014.0
20260510095042 17 0 0.0 14.5 0.00 0.00 0.00 62 1014.1
20260510094554 17 5 0.0 14.5 0.00 0.00 0.00 66 1014.2
20260510094044 17 5 1.6 14.5 0.00 0.00 0.00 64 1014.2
20260510093542 17 0 0.0 8.0 0.00 0.00 0.00 65 1014.2
20260510093104 17 0 0.0 0.0 0.00 0.00 0.00 65 1014.2
20260510092544 17 0 0.0 8.0 0.00 0.00 0.00 67 1014.2
20260510092042 16 0 0.0 8.0 0.00 0.00 0.00 66 1014.2
20260510091554 16 9 0.0 6.4 0.00 0.00 0.00 67 1014.3
20260510091044 17 0 0.0 8.0 0.00 0.00 0.00 68 1014.2
20260510090543 16 13 0.0 8.0 0.00 0.00 0.00 69 1014.1
20260510090052 16 0 0.0 12.9 0.00 0.00 0.00 68 1014.3
20260510085543 16 0 0.0 12.9 0.00 0.00 0.00 67 1014.2
20260510085042 16 0 0.0 9.7 0.00 0.00 0.00 72 1014.3
20260510084559 16 0 1.6 9.7 0.00 0.00 0.00 71 1014.2
20260510084042 16 0 0.0 8.0 0.00 0.00 0.00 71 1014.4
20260510083545 16 360 0.0 9.7 0.00 0.00 0.00 71 1014.3
20260510083055 15 0 0.0 12.9 0.00 0.00 0.00 72 1014.3
20260510082541 15 0 1.6 12.9 0.00 0.00 0.00 72 1014.3
20260510082047 15 5 3.2 9.7 0.00 0.00 0.00 73 1014.4
20260510081624 15 0 0.0 8.0 0.00 0.00 0.00 73 1014.4
20260510081042 15 0 0.0 8.0 0.00 0.00 0.00 76 1014.5
20260510080542 15 0 0.0 3.2 0.00 0.00 0.00 76 1014.4
20260510080051 15 0 0.0 1.6 0.00 0.00 0.00 77 1014.5
20260510075544 15 0 0.0 0.0 0.00 0.00 0.00 77 1014.5
20260510075045 15 0 0.0 0.0 0.00 0.00 0.00 77 1014.6
20260510074556 14 0 0.0 8.0 0.00 0.00 0.00 78 1014.6
20260510074048 14 0 0.0 8.0 0.00 0.00 0.00 78 1014.7
20260510073545 14 29 0.0 0.0 0.00 0.00 0.00 80 1014.5
20260510073103 13 0 0.0 0.0 0.00 0.00 0.00 80 1014.5
20260510072545 13 0 0.0 0.0 0.00 0.00 0.00 80 1014.5
20260510072047 13 0 0.0 0.0 0.00 0.00 0.00 81 1014.4
20260510071557 13 0 0.0 0.0 0.00 0.00 0.00 83 1014.4
20260510071042 13 0 0.0 0.0 0.00 0.00 0.00 85 1014.4
20260510070542 13 0 0.0 0.0 0.00 0.00 0.00 86 1014.5
20260510070054 12 0 0.0 0.0 0.00 0.00 0.00 87 1014.5
20260510065542 12 0 0.0 0.0 0.00 0.00 0.00 89 1014.6
20260510065042 12 0 0.0 0.0 0.00 0.00 0.00 91 1014.5
20260510064556 12 0 0.0 0.0 0.00 0.00 0.00 92 1014.4
20260510064044 12 0 0.0 0.0 0.00 0.00 0.00 93 1014.4
20260510063545 11 0 0.0 0.0 0.00 0.00 0.00 94 1014.3
20260510063049 11 0 0.0 0.0 0.00 0.00 0.00 94 1014.4
20260510062542 11 0 0.0 0.0 0.00 0.00 0.00 95 1014.4
20260510062043 11 0 0.0 0.0 0.00 0.00 0.00 95 1014.3
20260510061557 10 0 0.0 0.0 0.00 0.00 0.00 96 1014.2
20260510061045 10 0 0.0 0.0 0.00 0.00 0.00 96 1014.4
20260510060543 10 0 0.0 0.0 0.00 0.00 0.00 96 1014.5
20260510060056 10 0 0.0 0.0 0.00 0.00 0.00 96 1014.5
20260510055542 10 0 0.0 0.0 0.00 0.00 0.00 96 1014.6
20260510055045 9 0 0.0 0.0 0.00 0.00 0.00 96 1014.6
20260510054559 9 0 0.0 0.0 0.00 0.00 0.00 96 1014.7
20260510054043 8 0 0.0 0.0 0.00 0.00 0.00 96 1014.8
20260510053543 8 0 0.0 0.0 0.00 0.00 0.00 96 1014.8
20260510053107 8 0 0.0 0.0 0.00 0.00 0.00 96 1014.6
20260510052544 8 0 0.0 0.0 0.00 0.00 0.00 96 1014.7
20260510052047 8 0 0.0 0.0 0.00 0.00 0.00 96 1014.8
20260510051602 8 0 0.0 0.0 0.00 0.00 0.00 95 1014.8
20260510051042 7 0 0.0 0.0 0.00 0.00 0.00 95 1014.7
20260510050542 7 0 0.0 0.0 0.00 0.00 0.00 95 1014.7
20260510050111 7 0 0.0 0.0 0.00 0.00 0.00 95 1014.7
20260510045546 7 0 0.0 0.0 0.00 0.00 0.00 95 1014.8
20260510045046 7 0 0.0 0.0 0.00 0.00 0.00 95 1014.7
20260510044605 7 0 0.0 0.0 0.00 0.00 0.00 95 1014.7
20260510044044 7 0 0.0 0.0 0.00 0.00 0.00 95 1014.8
20260510043545 7 0 0.0 0.0 0.00 0.00 0.00 95 1014.7
20260510043056 7 0 0.0 0.0 0.00 0.00 0.00 95 1014.8
20260510042542 7 0 0.0 0.0 0.00 0.00 0.00 95 1014.9
20260510042042 7 0 0.0 0.0 0.00 0.00 0.00 95 1014.8
20260510041602 7 0 0.0 0.0 0.00 0.00 0.00 95 1014.8
20260510041043 7 0 0.0 0.0 0.00 0.00 0.00 95 1014.8
20260510040542 7 0 0.0 0.0 0.00 0.00 0.00 95 1014.9
20260510040055 7 0 0.0 0.0 0.00 0.00 0.00 95 1014.9
20260510035545 7 0 0.0 0.0 0.00 0.00 0.00 95 1014.8
20260510035042 7 0 0.0 0.0 0.00 0.00 0.00 95 1014.8
20260510034557 7 0 0.0 0.0 0.00 0.00 0.00 95 1014.7
20260510034043 7 0 0.0 0.0 0.00 0.00 0.00 95 1014.8
20260510033547 7 0 0.0 0.0 0.00 0.00 0.00 95 1014.6
20260510033107 7 0 0.0 0.0 0.00 0.00 0.00 95 1014.7
20260510032546 7 0 0.0 0.0 0.00 0.00 0.00 95 1014.8
20260510032045 8 0 0.0 0.0 0.00 0.00 0.00 95 1014.9
20260510031551 8 0 0.0 0.0 0.00 0.00 0.00 95 1015.0
20260510031042 8 0 0.0 0.0 0.00 0.00 0.00 95 1014.9
20260510030545 8 0 0.0 0.0 0.00 0.00 0.00 95 1014.9
20260510030110 8 0 0.0 0.0 0.00 0.00 0.00 95 1015.1
20260510025544 7 0 0.0 0.0 0.00 0.00 0.00 95 1015.2
20260510025042 7 0 0.0 0.0 0.00 0.00 0.00 94 1015.2
20260510024547 7 0 0.0 0.0 0.00 0.00 0.00 94 1015.2
20260510024043 7 0 0.0 0.0 0.00 0.00 0.00 94 1015.2
20260510023542 7 0 0.0 0.0 0.00 0.00 0.00 94 1015.1
20260510023049 7 0 0.0 0.0 0.00 0.00 0.00 94 1015.2
20260510022542 7 0 0.0 0.0 0.00 0.00 0.00 94 1015.1
20260510022042 7 0 0.0 0.0 0.00 0.00 0.00 94 1015.0
20260510021553 8 0 0.0 0.0 0.00 0.00 0.00 94 1015.2
20260510021041 7 0 0.0 0.0 0.00 0.00 0.00 94 1015.2
20260510020542 8 0 0.0 0.0 0.00 0.00 0.00 94 1015.1
20260510020051 8 0 0.0 0.0 0.00 0.00 0.00 94 1015.3
20260510015541 8 0 0.0 0.0 0.00 0.00 0.00 94 1015.3
20260510015042 8 0 0.0 0.0 0.00 0.00 0.00 94 1015.2
20260510014602 8 0 0.0 0.0 0.00 0.00 0.00 94 1015.3
20260510014042 8 0 0.0 0.0 0.00 0.00 0.00 94 1015.3
20260510013545 8 0 0.0 0.0 0.00 0.00 0.00 94 1015.3
20260510013050 8 0 0.0 0.0 0.00 0.00 0.00 94 1015.3
20260510012541 8 0 0.0 0.0 0.00 0.00 0.00 94 1015.3
20260510012042 8 0 0.0 0.0 0.00 0.00 0.00 94 1015.4
20260510011554 8 0 0.0 0.0 0.00 0.00 0.00 94 1015.5
20260510011043 8 0 0.0 0.0 0.00 0.00 0.00 94 1015.4
20260510010542 8 0 0.0 0.0 0.00 0.00 0.00 94 1015.4
20260510010050 8 0 0.0 0.0 0.00 0.00 0.00 94 1015.5
20260510005542 8 0 0.0 0.0 0.00 0.00 0.00 94 1015.4
20260510005042 8 0 0.0 0.0 0.00 0.00 0.00 94 1015.6
20260510004551 8 0 0.0 0.0 0.00 0.00 0.00 94 1015.4
20260510004042 8 0 0.0 0.0 0.00 0.00 0.00 94 1015.6
20260510003542 8 0 0.0 0.0 0.00 0.00 0.00 94 1015.6
20260510003054 8 0 0.0 0.0 0.00 0.00 0.00 94 1015.7
20260510002544 8 0 0.0 0.0 0.00 0.00 0.00 94 1015.8
20260510002041 8 0 0.0 0.0 0.00 0.00 0.00 94 1015.7
20260510001555 9 0 0.0 0.0 0.00 0.00 0.00 94 1015.8
20260510001045 8 0 0.0 0.0 0.00 0.00 0.00 94 1015.9
20260510000543 8 0 0.0 0.0 0.00 0.00 0.00 94 1015.9
20260510000055 8 0 0.0 0.0 0.00 0.00 0.00 93 1015.9
20260509235541 9 0 0.0 0.0 0.00 0.00 0.00 94 1015.9
20260509235041 9 0 0.0 0.0 0.00 0.00 0.00 94 1016.1
20260509234558 9 0 0.0 0.0 0.00 0.00 0.00 94 1016.1
20260509234044 9 0 0.0 0.0 0.00 0.00 0.00 94 1016.1
20260509233545 9 0 0.0 0.0 0.00 0.00 0.00 94 1016.2
20260509233100 9 0 0.0 0.0 0.00 0.00 0.00 93 1016.2
20260509232542 9 0 0.0 0.0 0.00 0.00 0.00 93 1016.3
20260509232042 8 0 0.0 0.0 0.00 0.00 0.00 93 1016.3
20260509231553 8 0 0.0 0.0 0.00 0.00 0.00 93 1016.3
20260509231041 8 0 0.0 0.0 0.00 0.00 0.00 93 1016.4
20260509230545 8 0 0.0 0.0 0.00 0.00 0.00 93 1016.4
20260509230054 9 0 0.0 0.0 0.00 0.00 0.00 93 1016.4
20260509225542 9 0 0.0 0.0 0.00 0.00 0.00 93 1016.4
20260509225041 9 0 0.0 0.0 0.00 0.00 0.00 92 1016.5
20260509224549 9 0 0.0 0.0 0.00 0.00 0.00 92 1016.4
20260509224046 9 0 0.0 0.0 0.00 0.00 0.00 92 1016.5
20260509223543 9 0 0.0 0.0 0.00 0.00 0.00 92 1016.5
20260509223057 9 0 0.0 0.0 0.00 0.00 0.00 92 1016.6
20260509222541 9 0 0.0 0.0 0.00 0.00 0.00 92 1016.6
20260509222042 10 0 0.0 0.0 0.00 0.00 0.00 92 1016.7
20260509221549 10 0 0.0 0.0 0.00 0.00 0.00 92 1016.7
20260509221043 10 0 0.0 0.0 0.00 0.00 0.00 91 1016.6
20260509220546 10 0 0.0 0.0 0.00 0.00 0.00 91 1016.7
20260509220051 10 0 0.0 0.0 0.00 0.00 0.00 91 1016.6
20260509215542 10 0 0.0 0.0 0.00 0.00 0.00 91 1016.6
20260509215042 10 0 0.0 0.0 0.00 0.00 0.00 91 1016.6
20260509214554 10 0 0.0 0.0 0.00 0.00 0.00 91 1016.7
20260509214042 10 0 0.0 0.0 0.00 0.00 0.00 90 1016.7
20260509213544 10 0 0.0 0.0 0.00 0.00 0.00 90 1016.6
20260509213050 10 0 0.0 0.0 0.00 0.00 0.00 90 1016.7
20260509212543 10 0 0.0 0.0 0.00 0.00 0.00 90 1016.8
20260509212042 10 0 0.0 0.0 0.00 0.00 0.00 90 1016.9
20260509211550 10 0 0.0 0.0 0.00 0.00 0.00 89 1017.0
20260509211045 10 0 0.0 0.0 0.00 0.00 0.00 89 1016.8
20260509210546 11 0 0.0 0.0 0.00 0.00 0.00 89 1016.8
20260509210053 11 0 0.0 0.0 0.00 0.00 0.00 88 1016.7
20260509205543 11 0 0.0 0.0 0.00 0.00 0.00 88 1016.8
20260509205042 11 0 0.0 0.0 0.00 0.00 0.00 87 1016.8
20260509204555 11 0 0.0 0.0 0.00 0.00 0.00 87 1016.7
20260509204043 11 0 0.0 0.0 0.00 0.00 0.00 86 1016.7
20260509203545 11 0 0.0 0.0 0.00 0.00 0.00 86 1016.9
20260509203056 11 0 0.0 0.0 0.00 0.00 0.00 86 1016.9
20260509202542 12 0 0.0 0.0 0.00 0.00 0.00 85 1016.8
20260509202045 12 0 0.0 0.0 0.00 0.00 0.00 86 1017.0
20260509201559 12 0 0.0 0.0 0.00 0.00 0.00 86 1017.0
20260509201042 12 0 0.0 0.0 0.00 0.00 0.00 85 1017.1
20260509200544 12 0 0.0 0.0 0.00 0.00 0.00 84 1016.9
20260509200104 12 0 0.0 0.0 0.00 0.00 0.00 84 1017.0
20260509195543 12 0 0.0 0.0 0.00 0.00 0.00 83 1016.9
20260509195042 12 0 0.0 0.0 0.00 0.00 0.00 83 1016.8
20260509194549 12 0 0.0 0.0 0.00 0.00 0.00 81 1016.8
20260509194042 12 0 0.0 0.0 0.00 0.00 0.00 81 1016.7
20260509193545 12 0 0.0 0.0 0.00 0.00 0.00 80 1016.8
20260509193110 13 0 0.0 0.0 0.00 0.00 0.00 80 1016.6
20260509192548 13 0 0.0 0.0 0.00 0.00 0.00 79 1016.7
20260509192041 13 0 0.0 0.0 0.00 0.00 0.00 78 1016.7
20260509191551 13 0 0.0 0.0 0.00 0.00 0.00 77 1016.7
20260509191043 13 0 0.0 0.0 0.00 0.00 0.00 76 1016.7
20260509190544 14 0 0.0 0.0 0.00 0.00 0.00 75 1016.5
20260509190053 14 0 0.0 0.0 0.00 0.00 0.00 74 1016.5
20260509185542 15 0 0.0 0.0 0.00 0.00 0.00 72 1016.5
20260509185043 15 0 0.0 0.0 0.00 0.00 0.00 72 1016.5
20260509184601 15 0 0.0 0.0 0.00 0.00 0.00 71 1016.5
20260509184044 15 0 0.0 0.0 0.00 0.00 0.00 70 1016.4
20260509183542 15 0 0.0 0.0 0.00 0.00 0.00 69 1016.3
20260509183056 16 0 0.0 0.0 0.00 0.00 0.00 68 1016.2
20260509182547 16 0 0.0 0.0 0.00 0.00 0.00 67 1016.3
20260509182043 16 0 0.0 0.0 0.00 0.00 0.00 66 1016.3
20260509181549 16 0 0.0 3.2 0.00 0.00 0.00 65 1016.2